Burdaev M.N.

operational
NORAD ID: 57199 Int'l Des: 2023-091 Owner: SITRO Country: RU
LEOCIRCULARRETROGRADESSO

关于 Burdaev M.N.

正在加载描述...

实时位置

正在加载3D地球...

即将过境

高度历史

Altitude vs Time

uPlot chart will show altitude changes over time

两行轨道根数

1 57199U 23091AK 26061.64510780 .00022513 00000-0 67668-3 0 9991
2 57199 97.5206 129.9175 0008519 96.8475 263.3737 15.34382056148403
Epoch: Mar 2, 2026 • Age: 26 hours

当前状态

高度 477.7 km
速度 7.62 km/s
星下点 -30.71°S, 60.6°W
发射日期 Jun 27, 2023
运行时间 2.6 years
类型 other

技术详情

分类 Payload
质量 3.00 kg
干质量 3.00 kg
总质量 3.00 kg
长度 0.30 m
直径 0.10 m
跨度 0.30 m
形状 Box
制造商 SPUT
平台类型 Cubesat 3U
阶段状态 In Orbit
所有者/国家 SITRO/RU

大型星座

Loading constellations...